Content
SEND FEEDBACK

Daily
Averages
Monthly
Summary
United States of America

YIGO, GUAM


Home > North America > United States > Guam
Elevation: 530 feet     Latitude: 13 32N     Longitude: 144 53E

WEATHER
 
SELECT A DAY
Number of Records: 213,786;   Date Range: 1/1/95 - 10/20/14
 
SHARE

PRINT THIS DATA

[ ← Previous Day ]
WEATHER ALMANAC - FEBRUARY 17, 2013
[ Next Day → ]
[ °C ]   °F
Weather ElementAverageHighLow
Temperature77.7 °F86 °F (12:54 pm)71.6 °F (6:03 pm)
Dewpoint73 °F74.3 °F (3:54 pm)70.5 °F (10:54 am)
Humidity86.3 %100 % (4:01 pm)61 % (10:54 am)
Barometer29.83 in29.88 in (9:12 am)29.77 in (2:54 pm)
Wind Speed17.8 mph25.3 mph (5:54 pm)
Wind Gust31.1 mph (9:43 am)
Weather ElementAverage
Visibility7.3 mi
Wind DirectionENE (54.2 °)

Weather ElementTotal
Precipitation0.29 in
Cooling Degree Days13.8 (Base 65)
Growing Degree Days28.8 (Base 50)
Averaged from 36 records on February 17, 2013
WEATHER CONDITIONS BREAKOUT
WIND DIRECTION BREAKOUT
WEATHER BY HOUR - FEBRUARY 17, 2013
[ °C ]   °F
Local TimeTemperatureDewpointHumidityBarometerVisibilityWind DirectionWind SpeedGust SpeedPrecipitationEventsConditions
1:54 AM78.4 °F73.4 °F84 %29.80 in10.0 miENE (60°)12.7 mphClear
2:54 AM77.7 °F73.6 °F87 %29.79 in10.0 miNE (50°)11.5 mph0.00 inPartly Cloudy
3:54 AM77.5 °F73.4 °F87 %29.79 in10.0 miENE (60°)8.1 mphPartly Cloudy
4:54 AM76.5 °F72.7 °F88 %29.78 in10.0 miENE (60°)15.0 mph0.03 inScattered Clouds
5:54 AM76.8 °F72.5 °F86 %29.81 in10.0 miENE (60°)8.1 mphPartly Cloudy
6:54 AM76.8 °F73.0 °F88 %29.83 in10.0 miNE (50°)13.8 mphClear
7:54 AM79.2 °F73.0 °F81 %29.84 in10.0 miNE (40°)11.5 mphScattered Clouds
8:54 AM81.7 °F73.9 °F77 %29.85 in10.0 miNE (40°)16.1 mph25.3 mphScattered Clouds
9:12 AM78.8 °F71.6 °F78 %29.88 in10.0 miNNE (30°)20.7 mph29.9 mphMostly Cloudy
9:43 AM84.2 °F73.4 °F70 %29.87 in10.0 miNE (50°)24.2 mph31.1 mphScattered Clouds
9:54 AM82.6 °F73.2 °F73 %29.86 in10.0 miNE (40°)21.9 mph29.9 mphPartly Cloudy
10:54 AM85.5 °F70.5 °F61 %29.85 in10.0 miENE (60°)21.9 mph28.8 mphPartly Cloudy
11:54 AM85.6 °F71.4 °F62 %29.83 in10.0 miNE (50°)20.7 mph28.8 mphMostly Cloudy
12:54 PM86.0 °F72.1 °F63 %29.81 in10.0 miNE (50°)24.2 mph31.1 mphMostly Cloudy
1:54 PM83.7 °F73.9 °F72 %29.79 in10.0 miNE (40°)21.9 mph31.1 mph0.00 inRainLight Rain
2:54 PM85.1 °F73.0 °F67 %29.77 in10.0 miNE (50°)21.9 mph29.9 mph0.00 inMostly Cloudy
3:54 PM77.7 °F74.3 °F89 %29.78 in4.0 miENE (60°)19.6 mph27.6 mph0.01 inRainLight Rain
4:01 PM73.4 °F73.4 °F100 %29.80 in6.0 miNE (50°)18.4 mph0.00 inRainLight Rain
4:54 PM75.0 °F73.0 °F94 %29.78 in10.0 miENE (60°)17.3 mph21.9 mph0.00 inMostly Cloudy
5:45 PM78.8 °F73.4 °F83 %29.82 in5.0 miNE (50°)16.1 mph0.00 inRainLight Rain
5:54 PM78.4 °F73.9 °F86 %29.80 in1.8 miNE (50°)25.3 mph29.9 mph0.02 inRainRain
6:03 PM71.6 °F71.6 °F100 %29.82 in4.0 miENE (60°)18.4 mph0.01 inRainRain
6:15 PM73.4 °F73.4 °F100 %29.83 in3.0 miENE (60°)19.6 mph0.02 inRainLight Rain
6:23 PM71.6 °F71.6 °F100 %29.83 in3.0 miENE (60°)23.0 mph29.9 mph0.02 inRainLight Rain
6:54 PM74.7 °F72.0 °F91 %29.82 in3.0 miEast (80°)17.3 mph27.6 mph0.03 inRainLight Rain
7:54 PM73.4 °F73.0 °F99 %29.83 in10.0 miENE (60°)20.7 mph26.5 mph0.01 inOvercast
8:12 PM73.4 °F73.4 °F100 %29.86 in7.0 miNE (50°)17.3 mphMostly Cloudy
8:54 PM73.9 °F73.9 °F100 %29.84 in10.0 miENE (60°)15.0 mph23.0 mph0.01 inPartly Cloudy
9:37 PM77.0 °F73.4 °F89 %29.87 in6.0 miNE (50°)16.1 mph0.00 inRainLight Rain
9:46 PM75.2 °F73.4 °F94 %29.87 in4.0 miENE (60°)15.0 mph0.00 inRainLight Rain
9:54 PM75.6 °F73.9 °F95 %29.85 in2.5 miENE (60°)18.4 mph25.3 mph0.01 inRainLight Rain
10:07 PM75.2 °F73.4 °F94 %29.87 in3.0 miENE (60°)16.1 mph0.02 inRainLight Rain
10:19 PM75.2 °F73.4 °F94 %29.87 in6.0 miNE (50°)16.1 mph0.03 inRainLight Rain
10:47 PM75.2 °F73.4 °F94 %29.88 in3.0 miENE (60°)18.4 mph26.5 mph0.03 inRainRain
10:54 PM75.0 °F73.0 °F94 %29.86 in3.0 miENE (60°)23.0 mph31.1 mph0.04 inRainLight Rain
11:54 PM75.7 °F72.0 °F88 %29.85 in10.0 miENE (60°)15.0 mph0.00 inRainLight Rain
Hourly data recorded from PGUM, located miles away from Yigo, Guam







STORIES FROM OUR PARTNERS